Regional Weather Roundup
Issued by NWS Midland/Odessa, TX

Home | Current Version | Previous Version | Text Only | Print | Product List | Glossary On
Versions: 1 2 3 4 5 6 7 8 9 10 11 12 13 14 15 16 17 18 19 20 21 22 23 24 25 26 27 28 29 30 31 32 33 34 35 36 37 38 39 40 41 42 43 44 45 46 47 48 49 50
000
ASUS44 KMAF 251910
RWRMAF
MIDLAND AREA WEATHER ROUNDUP
NATIONAL WEATHER SERVICE MIDLAND TX
200 PM CDT TUE JUL 25 2017

...IN SOUTHWEST TEXAS AND SOUTHEAST NEW MEXICO...

CITY           SKY/WX    TMP DP  RH WIND       PRES   REMARKS
ALPINE         MOSUNNY   87  58  37 CALM      30.24F
ANDREWS        FAIR      95  56  26 S12G21    30.12S
ARTESIA        MOSUNNY   93  59  31 SW9G16    30.08F
BIG SPRING     SUNNY     94  60  31 S9G21     30.11F
CARLSBAD       MOSUNNY   94  61  33 VRB6G24   30.06F
DRYDEN           N/A     93  68  43 SE12G24   30.06F
FORT STOCKTON  SUNNY     94  57  28 SE10      30.09F
GUAD PASS      SUNNY     85  63  47 SW17      30.27F
HOBBS          MOSUNNY   93  54  26 SE9G17    30.13F
MARFA          SUNNY     86  58  38 NW5       30.23F
MIDLAND AIRPK  SUNNY     94  56  27 S12G22    30.10F
MIDLAND INTL   SUNNY     94  61  33 S12G20    30.10F
ODESSA         SUNNY     94  56  27 S15G24    30.11F
PECOS          SUNNY     96  61  30 SE8       30.05S
PRESIDIO       FAIR      94  59  31 S5        30.08F
SEMINOLE       SUNNY     94  55  27 S13G20    30.13F
SNYDER         MOSUNNY   94  63  35 S9G18     30.10S
WINK           SUNNY     96  59  29 SE14G21   30.06F
$$
...OTHER STATIONS IN TEXAS...

CITY           SKY/WX    TMP DP  RH WIND       PRES   REMARKS
ABILENE        MOSUNNY   93  66  40 VRB7G21   30.07F
AMARILLO       MOSUNNY   94  58  29 S15       30.11S
AUSTIN         PTSUNNY   96  71  44 S13       30.06F HX 103
BROWNSVILLE    PTSUNNY   93  76  57 SE20G28   30.05F HX 105
CORPUS CHRISTI PTSUNNY   94  76  55 SE17G23   30.05S HX 106
DALLAS FTW     MOSUNNY   93  74  53 S14       30.04F HX 103
DEL RIO        MOSUNNY   95  69  42 SE14G22   30.02F HX 100
EL PASO        MOSUNNY   87  63  44 E5        30.14F
HOUSTON INT    PTSUNNY   92  73  53 S12       30.09F HX 100
LUBBOCK        MOSUNNY   94  59  31 S14       30.12F
SAN ANGELO     MOSUNNY   96  65  35 S8G18     30.07F
SAN ANTONIO    PTSUNNY   96  69  41 SE16      30.07F HX 102
WACO           SUNNY     97  70  41 S16       30.06F HX 103
WICHITA FALLS  NOT AVBL
$$
...OTHER LOCATIONS IN NEW MEXICO...

CITY           SKY/WX    TMP DP  RH WIND       PRES   REMARKS
ALAMOGORDO     SUNNY     88  55  33 S9        30.17F
ALBUQUERQUE    MOSUNNY   85  57  38 CALM      30.21F
CANNON AFB     LGT RAIN  85  67  54 SW14      30.16S
CLOVIS         MOSUNNY   93  61  34 S17       30.15F
HOLLOMAN AFB   MOSUNNY   93  58  30 SE8       30.16F
ROSWELL        PTSUNNY   95  58  28 S15G23    30.07F
RUIDOSO        SUNNY     81  54  39 W10       30.35F
SANTA FE       CLOUDY    83  57  41 SW10G17   30.26F
TRUTH OR CONSE MOSUNNY   87  39  18 MISG      30.18F
TUCUMCARI      PTSUNNY   94  58  29 S9G22     30.07F
$$



USA.gov is the U.S. government's official web portal to all federal, state and local government web resources and services.